This is the latest recevied weather packets stored in our database for station/object DH5WR-10. If no packets are shown the sender has not sent any weather packets the latest 10 day(s).
| Time | Temp. | Humidity | Pressure | Rain* | Wind** | Luminosity | Snow |
|---|---|---|---|---|---|---|---|
| 1788564128 | 21.11° C | 74% | 1018.8 hPa | - | - | - | - |
| 1788563228 | 21.11° C | 73% | 1018.7 hPa | - | - | - | - |
| 1788562328 | 21.67° C | 71% | 1018.5 hPa | - | - | - | - |
| 1788561428 | 22.22° C | 70% | 1018.2 hPa | - | - | - | - |
| 1788560528 | 22.22° C | 69% | 1018.1 hPa | - | - | - | - |
| 1788559627 | 22.22° C | 70% | 1018.2 hPa | - | - | - | - |
| 1788558727 | 21.67° C | 70% | 1018.1 hPa | - | - | - | - |
| 1788557827 | 21.67° C | 70% | 1017.9 hPa | - | - | - | - |
| 1788556927 | 21.67° C | 69% | 1017.8 hPa | - | - | - | - |
| 1788556027 | 22.22° C | 68% | 1017.8 hPa | - | - | - | - |
| 1788555127 | 22.22° C | 67% | 1017.9 hPa | - | - | - | - |
| 1788554227 | 21.67° C | 69% | 1017.8 hPa | - | - | - | - |
| 1788553326 | 22.22° C | 67% | 1017.9 hPa | - | - | - | - |
| 1788552426 | 22.22° C | 68% | 1017.8 hPa | - | - | - | - |
| 1788551526 | 22.78° C | 66% | 1017.8 hPa | - | - | - | - |
| 1788550626 | 23.89° C | 62% | 1017.7 hPa | - | - | - | - |
| 1788549725 | 23.33° C | 62% | 1017.6 hPa | - | - | - | - |
| 1788545077 | 24.44° C | 58% | 1016.8 hPa | - | - | - | - |
| 1788544176 | 25° C | 55% | 1016.5 hPa | - | - | - | - |
| 1788541157 | 27.22° C | 51% | 1016.4 hPa | - | - | - | - |
| 1788540257 | 27.22° C | 51% | 1016.4 hPa | - | - | - | - |
| 1788539357 | 27.78° C | 50% | 1016.4 hPa | - | - | - | - |
| 1788538457 | 28.33° C | 50% | 1016.5 hPa | - | - | - | - |
| 1788537556 | 28.33° C | 49% | 1016.5 hPa | - | - | - | - |
| 1788536656 | 28.33° C | 49% | 1016.7 hPa | - | - | - | - |
* Rain since midnight (hover to see other rain measurements)
** Current wind speed in m/s (hover to see current wind gust speed)